TimeCDT,TemperatureF,Dew PointF,Humidity,Sea Level PressureIn,VisibilityMPH,Wind Direction,Wind SpeedMPH,Gust SpeedMPH,PrecipitationIn,Events,Conditions,WindDirDegrees,DateUTC
12:55 AM,50.0,25.0,38,29.82,10.0,SW,12.7,-,N/A,,Clear,220,2014-03-14 05:55:00
1:55 AM,50.0,25.0,38,29.80,10.0,SW,13.8,-,N/A,,Clear,220,2014-03-14 06:55:00
2:55 AM,48.9,26.1,41,29.79,10.0,SW,13.8,-,N/A,,Clear,220,2014-03-14 07:55:00
3:55 AM,50.0,25.0,38,29.75,10.0,SW,15.0,24.2,N/A,,Clear,220,2014-03-14 08:55:00
4:55 AM,50.0,26.1,39,29.72,10.0,SW,19.6,34.5,N/A,,Clear,220,2014-03-14 09:55:00
5:55 AM,48.9,26.1,41,29.73,10.0,SW,15.0,-,N/A,,Clear,220,2014-03-14 10:55:00
6:55 AM,48.0,27.0,44,29.72,10.0,SW,15.0,27.6,N/A,,Clear,230,2014-03-14 11:55:00
7:55 AM,48.0,27.0,44,29.73,10.0,SW,13.8,26.5,N/A,,Clear,230,2014-03-14 12:55:00
8:55 AM,51.1,27.0,39,29.76,10.0,WSW,13.8,25.3,N/A,,Clear,250,2014-03-14 13:55:00
9:55 AM,54.0,28.0,37,29.78,10.0,West,19.6,25.3,N/A,,Clear,280,2014-03-14 14:55:00
10:55 AM,55.0,30.9,40,29.82,10.0,WNW,13.8,20.7,N/A,,Clear,300,2014-03-14 15:55:00
11:55 AM,57.0,30.0,36,29.83,10.0,WNW,15.0,-,N/A,,Clear,300,2014-03-14 16:55:00
12:55 PM,57.9,30.9,36,29.84,10.0,NW,18.4,26.5,N/A,,Clear,320,2014-03-14 17:55:00
1:55 PM,59.0,30.0,33,29.86,10.0,West,23.0,28.8,N/A,,Clear,280,2014-03-14 18:55:00
2:55 PM,59.0,27.0,29,29.86,10.0,West,20.7,33.4,N/A,,Clear,280,2014-03-14 19:55:00
3:55 PM,59.0,24.1,26,29.87,10.0,WNW,17.3,29.9,N/A,,Clear,300,2014-03-14 20:55:00
4:55 PM,57.9,24.1,27,29.88,10.0,WNW,16.1,28.8,N/A,,Clear,290,2014-03-14 21:55:00
5:55 PM,55.9,21.9,27,29.90,10.0,WNW,18.4,27.6,N/A,,Clear,290,2014-03-14 22:55:00
6:55 PM,53.1,21.9,30,29.94,10.0,WNW,12.7,-,N/A,,Clear,300,2014-03-14 23:55:00
7:55 PM,48.9,21.0,33,29.96,10.0,NW,4.6,-,N/A,,Clear,310,2014-03-15 00:55:00
8:55 PM,42.1,23.0,47,29.98,10.0,WNW,3.5,-,N/A,,Clear,290,2014-03-15 01:55:00
9:55 PM,35.1,23.0,61,30.00,10.0,West,3.5,-,N/A,,Clear,280,2014-03-15 02:55:00
10:55 PM,33.1,23.0,66,30.01,10.0,West,3.5,-,N/A,,Clear,260,2014-03-15 03:55:00
11:55 PM,30.0,21.9,72,30.02,10.0,SW,4.6,-,N/A,,Clear,230,2014-03-15 04:55:00